[[{"header":{"parameterUnit":"m.s-1","parameterCategory":2,"la1":30.2992,"la2":30.254,"lo1":-89.0895,"lo2":-89.0443,"dy":0.0025,"dx":0.0025,"nx":19,"ny":19,"refTime":"2026-05-13T03:00:00:Z","depth":"0","parameterNumber":2,"parameterNumberName":"U-component_of_CURRENTS"},"data":[0,0,0,0.1338,0.1339,0.141,0.1411,0.1521,0.1522,0,0,0,0,0,0,0,0,0,0,0,0.1308,0.1309,0.1338,0.1339,0.141,0.1411,0.1521,0.1522,0,0,0,0,0,0,0,0,0,0,0,0.1308,0.1308,0.1309,0.134,0.141,0.1411,0.1521,0.1463,0,0,0,0,0,0,0,0,0,0,0.1391,0.1347,0.1308,0.1309,0.134,0.141,0.1411,0.146,0.1466,0.1494,0,0.1502,0,0.1518,0.153,0.153,0,0,0,0.1341,0.1341,0.1375,0.1309,0.1341,0.141,0.1379,0.1463,0.1471,0.1503,0.1504,0.1508,0.152,0.1531,0.1531,0.1586,0.1585,0,0,0.1337,0.1309,0.137,0.138,0.1356,0.1376,0.1381,0.1468,0.1466,0.1504,0.1511,0.1521,0.1532,0.1532,0.1586,0.1586,0,0,0,0.1325,0.1306,0.1338,0.1375,0.1388,0.1378,0.1384,0.1461,0.1476,0.1512,0.1523,0.1532,0.1534,0.1586,0.1586,0.1597,0,0,0,0.1322,0.13,0.1336,0.1319,0.1386,0.142,0.1375,0.147,0.148,0.1522,0.1532,0.1535,0.1587,0.1586,0.1597,0.1637,0,0,0,0.1306,0.1298,0.1308,0.1317,0.135,0.1419,0.1438,0.1472,0.1487,0.1531,0.1535,0.1587,0.1586,0.1598,0.1636,0.1717,0,0,0,0.1273,0.1292,0.1307,0.1325,0.135,0.1392,0.1437,0.1472,0.1504,0.1533,0.1587,0.1586,0.1598,0.1636,0.1715,0.1805,0.1821,0,0,0.1285,0.1293,0.1304,0.132,0.135,0.1383,0.1414,0.1477,0.1504,0.1561,0.1562,0.1597,0.1636,0.1717,0.1768,0.1785,0,0,0,0.13,0.1314,0.1323,0.134,0.1367,0.1403,0.1446,0.1479,0.1535,0.1521,0.1581,0.1605,0.1657,0.1706,0.1718,0.17,0.1583,0.1583,0.1583,0.1287,0.1306,0.1326,0.1354,0.1373,0.1417,0.1467,0.1518,0.1526,0.1545,0.1601,0.1654,0.1701,0.1713,0.169,0.1566,0.1566,0.1566,0.1566,0.1314,0.1326,0.134,0.1375,0.1395,0.1424,0.1503,0.153,0.1636,0.16,0.1649,0.1696,0.1729,0.1699,0.1567,0.1567,0.1567,0.1567,0.1567,0.1313,0.1321,0.1345,0.138,0.1413,0.1448,0.1547,0.1607,0.1667,0.172,0.1809,0.181,0.1803,0.1746,0.1746,0.1747,0.1747,0.1747,0.1748,0.1295,0.132,0.135,0.1393,0.1416,0.1477,0.1591,0.1688,0.1824,0.1861,0.1862,0.1819,0.171,0.1726,0.1756,0.1754,0.1753,0.1752,0.1752,0.1288,0.1302,0.135,0.1381,0.1447,0.1497,0.1618,0.1831,0.1955,0.2046,0.2016,0.1952,0.1979,0.1968,0.199,0.2088,0.2088,0.2088,0.2088,0.1266,0.1282,0.1331,0.1379,0.1443,0.1505,0.1649,0.1839,0.2053,0.2131,0.214,0.2083,0.207,0.2098,0.2084,0.2106,0.223,0.223,0.223,0.1243,0.127,0.1288,0.135,0.1422,0.1499,0.1597,0.1757,0.2079,0.2228,0.2096,0.209,0.1991,0.1972,0.1999,0.1981,0.201,0,0]},{"header":{"parameterUnit":"m.s-1","parameterCategory":2,"la1":30.2992,"la2":30.254,"lo1":-89.0895,"lo2":-89.0443,"dy":0.0025,"dx":0.0025,"nx":19,"ny":19,"refTime":"2026-05-13T03:00:00:Z","depth":"0","parameterNumber":3,"parameterNumberName":"V-component_of_CURRENTS"},"data":[0,0,0,-0.0025,-0.0027,-0.0147,-0.0148,-0.0333,-0.0335,0,0,0,0,0,0,0,0,0,0,0,0.0024,0.0024,-0.0025,-0.0027,-0.0147,-0.0148,-0.0333,-0.0335,0,0,0,0,0,0,0,0,0,0,0,0.0024,0.0024,0.0023,-0.0028,-0.0147,-0.0148,-0.0332,-0.0237,0,0,0,0,0,0,0,0,0,0,-0.0117,-0.0051,0.0024,0.0023,-0.0028,-0.0147,-0.0148,-0.0232,-0.0243,-0.0284,0,-0.029,0,-0.0317,-0.0347,-0.0347,0,0,0,-0.0039,-0.0042,-0.0086,0.0023,-0.0029,-0.0146,-0.0096,-0.0238,-0.025,-0.0299,-0.0293,-0.03,-0.032,-0.0348,-0.0349,-0.043,-0.043,0,0,-0.0032,0.0007,-0.0077,-0.0093,-0.0046,-0.0092,-0.01,-0.0245,-0.0245,-0.0294,-0.0305,-0.0323,-0.0349,-0.035,-0.0431,-0.043,0,0,0,-0.0005,0.0012,-0.0028,-0.0085,-0.0105,-0.0095,-0.0104,-0.0239,-0.0255,-0.0307,-0.0325,-0.035,-0.0352,-0.0431,-0.0431,-0.0265,0,0,0,-0.0002,0.0027,-0.0024,-0.0002,-0.0101,-0.0166,-0.0094,-0.0245,-0.0262,-0.0324,-0.035,-0.0354,-0.0432,-0.0431,-0.0271,-0.0144,0,0,0,0.0027,0.003,0.0019,0.0,-0.0049,-0.0164,-0.0189,-0.0249,-0.0273,-0.0347,-0.0354,-0.0432,-0.0431,-0.0276,-0.0155,-0.0053,0,0,0,0.0066,0.0067,0.0021,0.0001,-0.0048,-0.0126,-0.0188,-0.0254,-0.0312,-0.0351,-0.0432,-0.0431,-0.0277,-0.0162,-0.0061,0.0026,0.0066,0,0,0.0088,0.0071,0.0053,0.0008,-0.0045,-0.0111,-0.0134,-0.0231,-0.0307,-0.039,-0.0392,-0.0269,-0.0156,-0.0055,0.0088,0.0127,0,0,0,0.0072,0.0065,0.0036,-0.0007,-0.0077,-0.0072,-0.0184,-0.0197,-0.0233,-0.0335,-0.0294,-0.0227,-0.0168,-0.0133,-0.0103,-0.0204,-0.0426,-0.0426,-0.0426,0.0162,0.01,0.0083,0.0016,-0.0015,-0.0062,-0.0033,-0.0067,-0.0193,-0.0161,-0.0112,0.0057,0.0094,0.0118,0.0012,-0.0166,-0.0166,-0.0165,-0.0165,0.0201,0.0185,0.0143,0.0114,0.0106,0.01,0.0115,0.0096,0.0157,0.0026,0.0072,0.0015,0.0162,0.0035,-0.0155,-0.0157,-0.0158,-0.0159,-0.016,0.0257,0.0244,0.0231,0.0224,0.027,0.0253,0.0397,0.0392,0.0339,0.0412,0.0394,0.0391,0.0301,0.04,0.0401,0.0402,0.0403,0.0404,0.0405,0.0323,0.0304,0.0332,0.0342,0.0384,0.0486,0.0582,0.0658,0.069,0.0625,0.0623,0.0355,0.023,0.0231,0.042,0.0418,0.0416,0.0414,0.0413,0.0348,0.037,0.0411,0.0456,0.0569,0.0719,0.0808,0.0964,0.1017,0.105,0.0741,0.0722,0.0689,0.0661,0.0671,0.0964,0.0964,0.0964,0.0964,0.0387,0.0391,0.0463,0.0554,0.0705,0.0823,0.1058,0.1168,0.1094,0.101,0.0909,0.0763,0.0746,0.0703,0.0675,0.0678,0.0967,0.0966,0.0966,0.0403,0.0426,0.0486,0.0571,0.0745,0.0933,0.1135,0.1277,0.1138,0.0949,0.076,0.076,0.0518,0.0498,0.0394,0.0363,0.0353,0,0]}],[{"header":{"parameterUnit":"m.s-1","parameterCategory":2,"la1":30.2992,"la2":30.254,"lo1":-89.0895,"lo2":-89.0443,"dy":0.0025,"dx":0.0025,"nx":19,"ny":19,"refTime":"2026-05-13T03:00:00:Z","depth":"2","parameterNumber":2,"parameterNumberName":"U-component_of_CURRENTS"},"data":[0,0,0,0.1568,0.1568,0.1555,0.1555,0.1473,0.1472,0,0,0,0,0,0,0,0,0,0,0,0.1561,0.1561,0.1568,0.1568,0.1555,0.1555,0.1473,0.1472,0,0,0,0,0,0,0,0,0,0,0,0.1561,0.1561,0.1561,0.1567,0.1555,0.1555,0.1474,0.1498,0,0,0,0,0,0,0,0,0,0,0.1518,0.1524,0.1561,0.1561,0.1567,0.1555,0.1555,0.15,0.1497,0.1461,0,0.1454,0,0.1465,0.1466,0.1465,0,0,0,0.1564,0.1527,0.1525,0.1561,0.1567,0.1555,0.156,0.1499,0.1495,0.1456,0.1453,0.1451,0.1464,0.1465,0.1465,0.1382,0.1382,0,0,0.1565,0.1557,0.1528,0.1522,0.1555,0.156,0.1559,0.1497,0.1486,0.1453,0.145,0.1463,0.1464,0.1464,0.1382,0.1382,0,0,0,0.1569,0.1557,0.1558,0.1525,0.153,0.156,0.1559,0.1489,0.149,0.1449,0.1462,0.1464,0.1463,0.1382,0.1382,0.1425,0,0,0,0.1569,0.156,0.1558,0.1553,0.1531,0.1519,0.1552,0.1494,0.1488,0.1462,0.1464,0.1462,0.1382,0.1382,0.1424,0.1458,0,0,0,0.1563,0.156,0.1557,0.1553,0.1551,0.1521,0.1518,0.1493,0.1495,0.1465,0.1461,0.1383,0.1382,0.1423,0.1456,0.1548,0,0,0,0.1559,0.155,0.1556,0.1538,0.1551,0.1523,0.1519,0.1495,0.1469,0.1463,0.1382,0.1382,0.1423,0.1455,0.1546,0.1495,0.1502,0,0,0.1549,0.1548,0.1537,0.1542,0.1504,0.1525,0.1495,0.1465,0.1451,0.1398,0.1396,0.1424,0.1456,0.1548,0.1472,0.1481,0,0,0,0.1534,0.1522,0.1511,0.1488,0.1474,0.1475,0.1452,0.146,0.1445,0.1435,0.1404,0.1423,0.148,0.1442,0.1449,0.138,0.138,0.138,0.138,0.1543,0.1514,0.1475,0.1439,0.1426,0.1429,0.1451,0.1454,0.1422,0.1434,0.1442,0.1519,0.1475,0.148,0.1415,0.1416,0.1416,0.1416,0.1416,0.1526,0.1489,0.1451,0.1409,0.1399,0.1386,0.1429,0.1452,0.1515,0.1463,0.1518,0.1468,0.149,0.1419,0.1418,0.1418,0.1418,0.1417,0.1417,0.1529,0.1495,0.1472,0.1415,0.1394,0.1398,0.1476,0.1521,0.156,0.1612,0.1605,0.1603,0.1592,0.1651,0.1652,0.1652,0.1653,0.1653,0.1653,0.1536,0.1495,0.1481,0.1431,0.142,0.1451,0.1531,0.161,0.1675,0.1661,0.166,0.16,0.1592,0.1606,0.1662,0.166,0.1659,0.1658,0.1658,0.15,0.1509,0.148,0.1475,0.146,0.1424,0.1546,0.1632,0.1755,0.1774,0.1702,0.1698,0.1696,0.1688,0.1704,0.1782,0.1782,0.1782,0.1782,0.1487,0.1488,0.143,0.1422,0.1431,0.1403,0.1393,0.1422,0.1535,0.152,0.153,0.1417,0.1419,0.1395,0.1393,0.14,0.1399,0.1398,0.1397,0.1457,0.144,0.1376,0.1356,0.1356,0.1321,0.1175,0.1117,0.1222,0.1374,0.1379,0.1773,0.1631,0.1624,0.1605,0.1596,0.1613,0,0]},{"header":{"parameterUnit":"m.s-1","parameterCategory":2,"la1":30.2992,"la2":30.254,"lo1":-89.0895,"lo2":-89.0443,"dy":0.0025,"dx":0.0025,"nx":19,"ny":19,"refTime":"2026-05-13T03:00:00:Z","depth":"2","parameterNumber":3,"parameterNumberName":"V-component_of_CURRENTS"},"data":[0,0,0,0.0575,0.0575,0.059,0.059,0.0441,0.0439,0,0,0,0,0,0,0,0,0,0,0,0.0561,0.0562,0.0575,0.0575,0.059,0.059,0.0441,0.0439,0,0,0,0,0,0,0,0,0,0,0,0.0561,0.0561,0.0562,0.0576,0.059,0.059,0.0442,0.0469,0,0,0,0,0,0,0,0,0,0,0.0474,0.0493,0.0561,0.0562,0.0576,0.059,0.059,0.0472,0.0467,0.0391,0,0.0401,0,0.0422,0.0427,0.0426,0,0,0,0.0562,0.0497,0.0503,0.0562,0.0576,0.059,0.0579,0.047,0.0465,0.0384,0.04,0.0396,0.0419,0.0425,0.0425,0.0289,0.0289,0,0,0.0561,0.0555,0.0507,0.05,0.0586,0.0579,0.058,0.0469,0.046,0.0399,0.0393,0.0417,0.0424,0.0423,0.0289,0.0289,0,0,0,0.0568,0.0554,0.0566,0.0504,0.0523,0.058,0.0581,0.0465,0.047,0.0392,0.0415,0.0423,0.0421,0.0289,0.0289,0.0341,0,0,0,0.0567,0.056,0.0565,0.0561,0.0527,0.0518,0.0579,0.0477,0.0467,0.0416,0.0423,0.0419,0.0289,0.0289,0.034,0.0371,0,0,0,0.056,0.0559,0.0564,0.0561,0.0575,0.0521,0.052,0.0476,0.048,0.0426,0.0419,0.029,0.0289,0.0339,0.0368,0.0372,0,0,0,0.0547,0.0557,0.0564,0.0579,0.0575,0.0584,0.0522,0.0505,0.0466,0.0422,0.0289,0.0289,0.0339,0.0367,0.0371,0.0351,0.0356,0,0,0.0553,0.0557,0.0567,0.0575,0.0595,0.0581,0.0566,0.0485,0.0431,0.0311,0.031,0.034,0.0368,0.0372,0.034,0.0345,0,0,0,0.0566,0.057,0.058,0.0592,0.0601,0.0585,0.053,0.0495,0.041,0.041,0.0322,0.0337,0.0338,0.0323,0.0326,0.0288,0.0288,0.0288,0.0288,0.0552,0.0567,0.0578,0.0588,0.0588,0.057,0.0547,0.0477,0.042,0.0393,0.0365,0.0386,0.037,0.0372,0.0344,0.0344,0.0344,0.0345,0.0345,0.0554,0.0559,0.0565,0.0579,0.0571,0.0551,0.0513,0.0487,0.043,0.0392,0.039,0.0361,0.0379,0.0348,0.0348,0.0347,0.0347,0.0346,0.0346,0.0541,0.0545,0.0552,0.0561,0.0557,0.0549,0.0558,0.0531,0.0471,0.0473,0.0428,0.0426,0.0425,0.0463,0.0463,0.0463,0.0463,0.0463,0.0464,0.0525,0.0532,0.0541,0.0552,0.0564,0.059,0.0596,0.059,0.0539,0.0482,0.0481,0.0425,0.0421,0.043,0.0466,0.0466,0.0465,0.0465,0.0465,0.052,0.0522,0.0544,0.056,0.0606,0.0663,0.0667,0.0652,0.0616,0.0583,0.0475,0.0474,0.0453,0.0449,0.0457,0.0497,0.0497,0.0497,0.0497,0.0514,0.0516,0.0558,0.06,0.0656,0.0705,0.0748,0.0673,0.0564,0.0454,0.0456,0.0426,0.0425,0.04,0.0397,0.0403,0.043,0.043,0.043,0.0512,0.0533,0.0567,0.0616,0.0688,0.0758,0.0794,0.0709,0.0496,0.0426,0.0437,0.0494,0.0453,0.0451,0.0413,0.0408,0.0417,0,0]}],[{"header":{"parameterUnit":"m.s-1","parameterCategory":2,"la1":30.2992,"la2":30.254,"lo1":-89.0895,"lo2":-89.0443,"dy":0.0025,"dx":0.0025,"nx":19,"ny":19,"refTime":"2026-05-13T03:00:00:Z","depth":"4","parameterNumber":2,"parameterNumberName":"U-component_of_CURRENTS"},"data":[0,0,0,0.0485,0.0487,0.0671,0.0673,0.0721,0.072,0,0,0,0,0,0,0,0,0,0,0,0.0411,0.0411,0.0485,0.0488,0.0671,0.0673,0.0721,0.072,0,0,0,0,0,0,0,0,0,0,0,0.0411,0.0411,0.0411,0.0488,0.0671,0.0673,0.0721,0.0638,0,0,0,0,0,0,0,0,0,0,0.0487,0.0491,0.0411,0.0411,0.0489,0.0671,0.0673,0.0637,0.0643,0.0572,0,0.0571,0,0.0628,0.0716,0.0715,0,0,0,0.0527,0.0487,0.0468,0.0411,0.049,0.067,0.06,0.0642,0.0649,0.0579,0.0573,0.0577,0.0629,0.0715,0.0715,0.0651,0.065,0,0,0.0517,0.0515,0.0463,0.0471,0.0494,0.0593,0.0605,0.0649,0.0672,0.0573,0.0579,0.0629,0.0715,0.0714,0.0651,0.0651,0,0,0,0.0461,0.0508,0.0495,0.0467,0.0505,0.0598,0.0611,0.0673,0.0648,0.058,0.063,0.0714,0.0713,0.0651,0.0651,0.0731,0,0,0,0.0457,0.0472,0.0489,0.0501,0.0504,0.0632,0.0633,0.0646,0.0653,0.063,0.0714,0.0713,0.0651,0.0651,0.0729,0.076,0,0,0,0.041,0.047,0.0462,0.0498,0.0555,0.0632,0.0619,0.0651,0.068,0.0715,0.0713,0.0651,0.0651,0.0727,0.0756,0.0747,0,0,0,0.0442,0.0444,0.0463,0.0473,0.0552,0.0621,0.062,0.0719,0.0759,0.0714,0.0651,0.0651,0.0727,0.0755,0.0745,0.0584,0,0,0,0.0456,0.0448,0.0442,0.046,0.0517,0.0601,0.0686,0.0745,0.0714,0.063,0.0631,0.0729,0.0756,0.0746,0.0558,0,0,0,0,0.0452,0.0438,0.0455,0.0495,0.0553,0.0659,0.0739,0.0733,0.0738,0.0725,0.0698,0.0711,0.0703,0.0603,0.0649,0.0649,0.0649,0.0649,0.0649,0.051,0.0494,0.0505,0.051,0.0587,0.0712,0.0757,0.0754,0.0743,0.0747,0.0754,0.0769,0.0664,0.0727,0.0728,0.0728,0.0728,0.0728,0.0729,0.0493,0.0485,0.0512,0.0517,0.0622,0.0734,0.078,0.0803,0.0785,0.0773,0.0762,0.0666,0.0736,0.0734,0.0733,0.0732,0.0732,0.0731,0.0731,0.0527,0.0518,0.0507,0.0532,0.0649,0.0763,0.0784,0.0856,0.0847,0.0853,0.0726,0.0801,0.0819,0.0864,0.0864,0.0864,0.0864,0.0864,0.0864,0.058,0.0557,0.0556,0.0554,0.0601,0.0691,0.0803,0.0744,0.0794,0.0781,0.089,0.0813,0.0809,0.0823,0.0866,0.0865,0.0865,0.0865,0.0865,0.0582,0.0623,0.0576,0.0574,0.0574,0.0602,0.0668,0.0615,0.0562,0.0496,0.0706,0.0714,0.066,0.0659,0.0667,0.0665,0.0663,0.0661,0,0.0631,0.0628,0.0612,0.0585,0.0528,0.0561,0.0441,0.038,0.0468,0.0586,0.0532,0.0781,0.0784,0.0727,0.0723,0.0733,0,0,0,0.0631,0.0627,0.0622,0.0601,0.054,0.0464,0.0427,0.0428,0.053,0.0292,0.0613,0.0625,0.0456,0.087,0.0805,0.08,0.0819,0,0]},{"header":{"parameterUnit":"m.s-1","parameterCategory":2,"la1":30.2992,"la2":30.254,"lo1":-89.0895,"lo2":-89.0443,"dy":0.0025,"dx":0.0025,"nx":19,"ny":19,"refTime":"2026-05-13T03:00:00:Z","depth":"4","parameterNumber":3,"parameterNumberName":"V-component_of_CURRENTS"},"data":[0,0,0,0.0277,0.0277,0.0269,0.0269,0.0225,0.0225,0,0,0,0,0,0,0,0,0,0,0,0.031,0.0311,0.0277,0.0277,0.0269,0.0269,0.0225,0.0225,0,0,0,0,0,0,0,0,0,0,0,0.031,0.0311,0.0312,0.0277,0.0269,0.0269,0.0225,0.0238,0,0,0,0,0,0,0,0,0,0,0.0249,0.0266,0.0311,0.0312,0.0277,0.0269,0.0269,0.0239,0.0237,0.022,0,0.025,0,0.0224,0.0221,0.0221,0,0,0,0.0272,0.0268,0.0283,0.0312,0.0277,0.0269,0.0271,0.0238,0.0236,0.0218,0.0249,0.0246,0.0224,0.0221,0.0221,0.0183,0.0183,0,0,0.0272,0.0282,0.0285,0.0283,0.0314,0.0272,0.0271,0.0237,0.0241,0.0249,0.0245,0.0223,0.0221,0.022,0.0183,0.0183,0,0,0,0.0277,0.0283,0.0299,0.0286,0.0281,0.0272,0.0271,0.0242,0.0254,0.0244,0.0222,0.022,0.022,0.0183,0.0183,0.02,0,0,0,0.0277,0.0286,0.03,0.0301,0.0283,0.0259,0.0277,0.0258,0.0252,0.0223,0.022,0.0219,0.0183,0.0183,0.0199,0.0175,0,0,0,0.0304,0.0286,0.0303,0.0303,0.03,0.0259,0.0268,0.0256,0.0238,0.0221,0.0219,0.0183,0.0183,0.0199,0.0176,0.0113,0,0,0,0.0289,0.0317,0.0304,0.032,0.0301,0.0267,0.0268,0.0249,0.0238,0.022,0.0183,0.0183,0.0199,0.0176,0.0114,0.0149,0,0,0,0.031,0.032,0.0326,0.0314,0.0298,0.0265,0.0221,0.0224,0.0228,0.0191,0.019,0.02,0.0176,0.0113,0.0142,0,0,0,0,0.0322,0.0335,0.0323,0.0319,0.0286,0.0234,0.0215,0.0203,0.0206,0.0221,0.0192,0.0176,0.0136,0.016,0.0182,0.0182,0.0182,0.0182,0.0182,0.0341,0.0336,0.0335,0.0317,0.0286,0.0217,0.0175,0.0157,0.0181,0.0194,0.0186,0.0142,0.0172,0.0198,0.0198,0.0198,0.0198,0.0198,0.0198,0.0347,0.035,0.0339,0.0343,0.0293,0.0258,0.0164,0.0167,0.0114,0.0167,0.0129,0.0174,0.02,0.0199,0.0199,0.0199,0.0199,0.0199,0.0199,0.0342,0.0349,0.0364,0.0363,0.0347,0.029,0.0221,0.0167,0.0127,0.0093,0.0106,0.0119,0.0118,0.0097,0.0097,0.0096,0.0096,0.0096,0.0096,0.0334,0.0346,0.0367,0.0374,0.039,0.0359,0.0255,0.0181,0.0112,0.0092,0.0104,0.0106,0.0109,0.011,0.009,0.0091,0.0092,0.0092,0.0093,0.0336,0.0348,0.0366,0.039,0.0403,0.0373,0.0292,0.015,0.0057,-0.0007,0.0064,0.0067,0.0043,0.0046,0.0045,0.0004,0.0005,0.0005,0,0.0342,0.0345,0.0377,0.04,0.0393,0.0373,0.0268,0.0171,0.0065,0.009,0.0048,0.0134,0.0135,0.0117,0.012,0.0123,0,0,0,0.0345,0.0356,0.0381,0.0404,0.0408,0.0306,0.0237,0.0195,0.011,0.0011,0.0013,0.0011,0.0069,0.0073,0.0042,0.0046,0.0044,0,0]}]]